Regional Weather Roundup
Issued by NWS Nashville, TN

Home | Current Version | Previous Version | Text Only | Print | Product List | Glossary On
Versions: 1 2 3 4 5 6 7 8 9 10 11 12 13 14 15 16 17 18 19 20 21 22 23 24 25 26 27
000
ASUS44 KOHX 262210
RWROHX
MIDDLE TENNESSEE HOURLY WEATHER ROUNDUP
NATIONAL WEATHER SERVICE NASHVILLE TN
500 PM CDT FRI MAY 26 2017

NOTE: "FAIR" INDICATES FEW OR NO CLOUDS BELOW 12,000 FEET WITH
NO SIGNIFICANT WEATHER AND/OR OBSTRUCTIONS TO VISIBILITY.

* THESE REPORTS ARE NOT UNDER NWS QUALITY CONTROL AND MAY NOT
  REPORT WEATHER SUCH AS PRECIPITATION AND FOG.


TNZ005>011-023>034-057-059-062>066-078-080-262300
...NORTHERN MIDDLE TENNESSEE...

CITY           SKY/WX    TMP DP  RH WIND       PRES   REMARKS
CLARKSVILLE    CLOUDY    83  56  39 SW18G26   29.83S
CROSSVILLE     MOSUNNY   76  60  57 VRB5      29.96F
GALLATIN       SUNNY     86  59  39 VRB6G12   29.88S
DICKSON        SUNNY     83  56  39 S21       29.85S
LEBANON        SUNNY     84  58  41 SW18      29.85F
NASHVILLE      MOSUNNY   86  56  35 S18       29.87S
PORTLAND       SUNNY     84  57  39 SW8G21    29.85R
ROCKWOOD       MOSUNNY   75  62  64 VRB5      29.97
SMYRNA         SUNNY     85  60  42 SW13G23   29.87S
SPARTA         SUNNY     81  61  50 S12G18    29.89F
SPRINGFIELD    SUNNY     82  59  44 S14G22    29.84S
WEST NASHVILLE SUNNY     86  59  39 SW20      29.83R
$$
TNZ056-058-060-061-075>077-079-093>097-262300
...SOUTHERN MIDDLE TENNESSEE...

CITY           SKY/WX    TMP DP  RH WIND       PRES   REMARKS
COLUMBIA       SUNNY     84  57  39 SW18G25   29.85F
FAYETTEVILLE   SUNNY     84  63  48 SW13      29.91F
MCMINNVILLE    SUNNY     84  61  45 SW10      29.91F
MURFREESBORO   SUNNY     86  56  35 SW13      29.86F
PULASKI        SUNNY     84  61  45 SW10G21   29.89S
SHELBYVILLE    SUNNY     82  61  47 SW16G25   29.89F
TULLAHOMA      SUNNY     82  57  42 SW17      29.92F
WINCHESTER     SUNNY     84  61  45 S12         N/A
$$


...KEY TO REMARKS...
VSB - VISIBILITY IN MILES
WCI - WIND CHILL INDEX
HX  - HEAT INDEX





USA.gov is the U.S. government's official web portal to all federal, state and local government web resources and services.